Radiation Dose at Monitoring Post of Fukushima Daini Nuclear Power Station
Date,Time,MP-1(microSv/h),MP-2(microSv/h),MP-3(microSv/h),MP-4(microSv/h),MP-5(microSv/h),MP-6(microSv/h),MP-7(microSv/h),Wind Direction,Wind Velocity(m/s),Rain
2016/03/18,00:00,0.463,0.264,0.478,0.426,0.396,0.217,0.189,south-southwest,9.5,No
2016/03/18,00:10,0.462,0.264,0.475,0.424,0.395,0.217,0.188,south-southwest,8.7,No
2016/03/18,00:20,0.465,0.265,0.479,0.427,0.394,0.216,0.189,south-southwest,8.2,No
2016/03/18,00:30,0.462,0.265,0.477,0.427,0.397,0.217,0.190,south-southwest,5.8,No
2016/03/18,00:40,0.462,0.265,0.476,0.424,0.397,0.216,0.188,south-southwest,5.7,No
2016/03/18,00:50,0.463,0.264,0.477,0.427,0.394,0.215,0.189,south,4.5,No
2016/03/18,01:00,0.464,0.265,0.475,0.425,0.397,0.216,0.190,south-southwest,4.8,No
2016/03/18,01:10,0.462,0.265,0.476,0.424,0.397,0.216,0.189,south-southwest,5.4,No
2016/03/18,01:20,0.464,0.264,0.479,0.427,0.395,0.216,0.190,south-southwest,5.7,No
2016/03/18,01:30,0.464,0.265,0.476,0.425,0.397,0.217,0.191,south-southwest,6.6,No
2016/03/18,01:40,0.461,0.264,0.478,0.425,0.397,0.216,0.189,south-southwest,5.8,No
2016/03/18,01:50,0.464,0.265,0.476,0.426,0.394,0.217,0.188,south,5.0,No
2016/03/18,02:00,0.464,0.264,0.477,0.425,0.397,0.216,0.190,south-southwest,4.8,No
2016/03/18,02:10,0.461,0.264,0.479,0.425,0.395,0.216,0.189,south-southwest,4.7,No
2016/03/18,02:20,0.464,0.264,0.477,0.426,0.395,0.216,0.189,south-southwest,3.9,No
2016/03/18,02:30,0.465,0.264,0.476,0.426,0.396,0.217,0.190,south,4.1,No
2016/03/18,02:40,0.462,0.265,0.477,0.424,0.396,0.216,0.190,south,4.8,No
2016/03/18,02:50,0.464,0.263,0.477,0.426,0.394,0.217,0.188,south,4.9,No
2016/03/18,03:00,0.464,0.265,0.476,0.427,0.398,0.216,0.190,south-southwest,3.9,No
2016/03/18,03:10,0.461,0.265,0.478,0.425,0.398,0.216,0.190,south-southwest,3.0,No
2016/03/18,03:20,0.464,0.265,0.478,0.426,0.396,0.217,0.189,south-southwest,4.6,No
2016/03/18,03:30,0.464,0.266,0.476,0.426,0.396,0.217,0.190,south,4.8,No
2016/03/18,03:40,0.464,0.264,0.479,0.425,0.395,0.216,0.189,south,6.2,No
2016/03/18,03:50,0.461,0.266,0.477,0.425,0.394,0.218,0.190,south-southwest,5.9,No
2016/03/18,04:00,0.462,0.264,0.477,0.427,0.397,0.215,0.190,south-southwest,6.0,No
2016/03/18,04:10,0.462,0.264,0.477,0.425,0.397,0.215,0.189,south-southwest,7.3,No
2016/03/18,04:20,0.463,0.265,0.478,0.427,0.398,0.217,0.189,south-southwest,8.3,No
2016/03/18,04:30,0.464,0.265,0.476,0.426,0.396,0.217,0.189,south-southwest,8.1,No
2016/03/18,04:40,0.463,0.265,0.477,0.426,0.396,0.217,0.191,south,6.7,No
2016/03/18,04:50,0.462,0.264,0.478,0.427,0.396,0.217,0.188,south,7.5,No
2016/03/18,05:00,0.462,0.266,0.477,0.426,0.396,0.217,0.189,south,8.5,No
2016/03/18,05:10,0.463,0.265,0.477,0.425,0.398,0.216,0.190,south,7.5,No
2016/03/18,05:20,0.461,0.265,0.480,0.425,0.397,0.217,0.190,south,7.3,No
2016/03/18,05:30,0.464,0.266,0.478,0.427,0.396,0.217,0.191,south-southwest,7.8,No
2016/03/18,05:40,0.463,0.265,0.475,0.426,0.397,0.216,0.190,south-southwest,8.2,No
2016/03/18,05:50,0.462,0.265,0.479,0.425,0.395,0.216,0.190,south-southwest,9.1,No
2016/03/18,06:00,0.462,0.264,0.478,0.426,0.394,0.217,0.190,south-southwest,9.3,No
2016/03/18,06:10,0.464,0.264,0.477,0.427,0.396,0.216,0.189,south-southwest,9.5,No
2016/03/18,06:20,0.461,0.265,0.478,0.425,0.396,0.217,0.189,south-southwest,9.8,No
2016/03/18,06:30,0.463,0.266,0.480,0.426,0.395,0.217,0.190,south-southwest,9.7,No
2016/03/18,06:40,0.463,0.266,0.478,0.428,0.396,0.217,0.191,south-southwest,9.9,No
2016/03/18,06:50,0.464,0.264,0.479,0.426,0.396,0.216,0.189,south-southwest,8.8,No
2016/03/18,07:00,0.463,0.265,0.478,0.427,0.394,0.217,0.188,south-southwest,7.5,No
2016/03/18,07:10,0.463,0.265,0.477,0.428,0.397,0.216,0.189,south-southwest,6.1,No
2016/03/18,07:20,0.465,0.264,0.478,0.426,0.398,0.218,0.189,south-southwest,5.5,No
2016/03/18,07:30,0.463,0.264,0.479,0.425,0.394,0.217,0.189,south,5.7,No
2016/03/18,07:40,0.462,0.266,0.476,0.425,0.397,0.217,0.187,south,6.7,No
2016/03/18,07:50,0.464,0.265,0.477,0.421,0.396,0.216,0.188,south-southwest,9.0,No
2016/03/18,08:00,0.462,0.264,0.477,0.424,0.393,0.217,0.188,south-southwest,10.9,No
2016/03/18,08:10,0.463,0.264,0.475,0.421,0.396,0.216,0.187,south,11.3,No
2016/03/18,08:20,0.465,0.261,0.478,0.424,0.394,0.215,0.187,south,11.2,No
2016/03/18,08:30,0.462,0.263,0.475,0.423,0.396,0.217,0.188,south,11.1,No
2016/03/18,08:40,0.463,0.263,0.476,0.422,0.396,0.217,0.188,south,11.3,No
2016/03/18,08:50,0.460,0.263,0.476,0.424,0.396,0.217,0.188,south,11.0,No
2016/03/18,09:00,0.462,0.264,0.475,0.423,0.398,0.217,0.189,south,11.8,No
2016/03/18,09:10,0.460,0.262,0.478,0.426,0.396,0.217,0.189,south,11.7,No
2016/03/18,09:20,0.462,0.265,0.475,0.420,0.397,0.217,0.189,south,12.0,No
2016/03/18,09:30,0.459,0.263,0.477,0.426,0.394,0.216,0.187,south,12.3,No
2016/03/18,09:40,0.463,0.264,0.474,0.422,0.398,0.216,0.189,south,12.3,No
2016/03/18,09:50,0.457,0.263,0.480,0.426,0.396,0.216,0.189,south,12.0,No
2016/03/18,10:00,0.463,0.263,0.476,0.424,0.396,0.216,0.189,south,12.8,No
2016/03/18,10:10,0.460,0.265,0.479,0.421,0.395,0.216,0.188,south,14.6,No
2016/03/18,10:20,0.460,0.263,0.475,0.427,0.393,0.216,0.188,south,14.0,No
2016/03/18,10:30,0.462,0.265,0.478,0.423,0.398,0.218,0.187,south,14.1,No
2016/03/18,10:40,0.457,0.263,0.474,0.423,0.394,0.215,0.189,south,14.3,No
2016/03/18,10:50,0.460,0.264,0.479,0.427,0.398,0.215,0.189,south,15.1,No
2016/03/18,11:00,0.459,0.264,0.471,0.423,0.396,0.215,0.189,south,14.2,No
2016/03/18,11:10,0.456,0.263,0.477,0.423,0.394,0.216,0.188,south,13.3,No
2016/03/18,11:20,0.461,0.264,0.476,0.427,0.397,0.216,0.189,south,13.4,No
2016/03/18,11:30,0.461,0.263,0.470,0.421,0.395,0.215,0.188,south,13.6,No
2016/03/18,11:40,0.459,0.263,0.476,0.426,0.395,0.216,0.189,south,16.3,No
2016/03/18,11:50,0.462,0.264,0.475,0.427,0.396,0.216,0.190,south,16.5,No
2016/03/18,12:00,0.465,0.260,0.472,0.422,0.393,0.216,0.187,south,16.6,No
2016/03/18,12:10,0.458,0.261,0.478,0.428,0.399,0.216,0.190,south,16.2,No
2016/03/18,12:20,0.463,0.264,0.476,0.425,0.395,0.215,0.188,south,18.1,No
2016/03/18,12:30,0.465,0.265,0.471,0.425,0.398,0.216,0.189,south,17.1,No
2016/03/18,12:40,0.460,0.263,0.478,0.428,0.399,0.216,0.187,south,15.0,No
2016/03/18,12:50,0.466,0.265,0.477,0.425,0.395,0.216,0.190,south,14.8,No
2016/03/18,13:00,0.464,0.264,0.472,0.427,0.400,0.216,0.188,south,13.6,No
2016/03/18,13:10,0.460,0.262,0.478,0.423,0.396,0.215,0.189,south,13.7,No
2016/03/18,13:20,0.466,0.265,0.476,0.426,0.397,0.216,0.188,south,13.7,No
2016/03/18,13:30,0.460,0.263,0.472,0.426,0.399,0.216,0.189,south,15.8,No
2016/03/18,13:40,0.464,0.266,0.477,0.426,0.394,0.217,0.189,south,15.8,No
2016/03/18,13:50,0.464,0.263,0.475,0.427,0.399,0.218,0.189,south,14.5,No
2016/03/18,14:00,0.462,0.264,0.471,0.424,0.394,0.216,0.189,south,14.6,No
2016/03/18,14:10,0.465,0.263,0.480,0.428,0.397,0.216,0.189,south,14.3,No
2016/03/18,14:20,0.460,0.266,0.475,0.425,0.396,0.216,0.189,south,14.8,No
2016/03/18,14:30,0.466,0.264,0.482,0.428,0.399,0.217,0.189,south,13.4,No
2016/03/18,14:40,0.459,0.265,0.476,0.425,0.397,0.216,0.188,south,12.4,No
2016/03/18,14:50,0.466,0.264,0.482,0.427,0.399,0.216,0.190,south,11.4,No
2016/03/18,15:00,0.460,0.265,0.476,0.430,0.394,0.216,0.189,south,12.2,No
2016/03/18,15:10,0.467,0.264,0.480,0.427,0.396,0.217,0.190,south,11.6,No
2016/03/18,15:20,0.462,0.266,0.477,0.428,0.398,0.216,0.189,south,11.7,No
2016/03/18,15:30,0.464,0.264,0.481,0.425,0.397,0.214,0.189,south,11.1,No
2016/03/18,15:40,0.463,0.265,0.475,0.429,0.398,0.214,0.189,south,12.0,No
2016/03/18,15:50,0.465,0.264,0.479,0.425,0.395,0.215,0.189,south-southwest,11.5,No
2016/03/18,16:00,0.462,0.265,0.476,0.428,0.399,0.217,0.189,south-southwest,10.1,No
2016/03/18,16:10,0.463,0.265,0.479,0.425,0.394,0.215,0.189,south,9.2,No
2016/03/18,16:20,0.462,0.264,0.476,0.427,0.399,0.215,0.188,south-southwest,9.5,No
2016/03/18,16:30,0.462,0.265,0.479,0.426,0.395,0.215,0.189,south-southwest,9.9,No
2016/03/18,16:40,0.462,0.264,0.476,0.427,0.397,0.216,0.189,south-southwest,9.4,No
2016/03/18,16:50,0.462,0.265,0.479,0.426,0.397,0.216,0.189,south,9.9,No
2016/03/18,17:00,0.463,0.263,0.477,0.424,0.397,0.216,0.190,south-southwest,11.1,No
2016/03/18,17:10,0.461,0.265,0.479,0.425,0.397,0.217,0.189,south-southwest,10.8,No
2016/03/18,17:20,0.463,0.263,0.477,0.425,0.396,0.216,0.190,south-southwest,11.2,No
2016/03/18,17:30,0.462,0.264,0.479,0.428,0.397,0.217,0.189,south-southwest,9.2,No
2016/03/18,17:40,0.463,0.264,0.476,0.424,0.395,0.215,0.190,south-southwest,9.5,No
2016/03/18,17:50,0.461,0.264,0.478,0.428,0.399,0.217,0.189,south-southwest,8.8,No
2016/03/18,18:00,0.463,0.266,0.478,0.425,0.397,0.215,0.189,south-southwest,9.0,No
2016/03/18,18:10,0.460,0.264,0.477,0.429,0.399,0.216,0.189,south-southwest,7.8,No
2016/03/18,18:20,0.466,0.265,0.476,0.426,0.395,0.216,0.190,south-southwest,9.4,No
2016/03/18,18:30,0.461,0.264,0.478,0.427,0.398,0.216,0.189,south-southwest,9.3,No
2016/03/18,18:40,0.466,0.265,0.477,0.426,0.394,0.216,0.189,south-southwest,9.8,No
2016/03/18,18:50,0.460,0.264,0.479,0.427,0.400,0.216,0.189,south-southwest,8.6,No
2016/03/18,19:00,0.463,0.265,0.476,0.427,0.394,0.217,0.189,south-southwest,8.1,No
2016/03/18,19:10,0.461,0.264,0.478,0.426,0.399,0.216,0.188,south,8.5,No
2016/03/18,19:20,0.465,0.264,0.477,0.426,0.395,0.216,0.189,south,8.6,No
2016/03/18,19:30,0.462,0.265,0.479,0.426,0.398,0.217,0.189,south-southwest,9.7,No
2016/03/18,19:40,0.464,0.263,0.477,0.426,0.397,0.217,0.190,south-southwest,9.4,No
2016/03/18,19:50,0.464,0.265,0.479,0.425,0.399,0.216,0.189,south-southwest,8.9,No
2016/03/18,20:00,0.460,0.264,0.478,0.427,0.397,0.216,0.188,south-southwest,9.4,No
2016/03/18,20:10,0.464,0.264,0.477,0.426,0.399,0.215,0.189,south-southwest,9.4,No
2016/03/18,20:20,0.462,0.264,0.478,0.428,0.399,0.216,0.189,south-southwest,8.9,No
2016/03/18,20:30,0.463,0.265,0.478,0.426,0.394,0.216,0.189,south-southwest,7.3,No
2016/03/18,20:40,0.461,0.266,0.478,0.429,0.399,0.215,0.190,south-southwest,8.0,No
2016/03/18,20:50,0.465,0.263,0.475,0.426,0.394,0.216,0.188,south-southwest,6.6,No
2016/03/18,21:00,0.463,0.265,0.479,0.426,0.399,0.216,0.189,south-southwest,6.3,No
2016/03/18,21:10,0.464,0.265,0.477,0.423,0.395,0.216,0.189,south-southwest,6.8,No
2016/03/18,21:20,0.462,0.265,0.479,0.428,0.398,0.215,0.190,south,6.5,No
2016/03/18,21:30,0.463,0.266,0.476,0.426,0.397,0.217,0.189,south,10.6,No
2016/03/18,21:40,0.462,0.265,0.481,0.427,0.397,0.216,0.188,south-southwest,10.3,No
2016/03/18,21:50,-,-,-,-,-,-,-,-,-,-
2016/03/18,22:00,0.464,0.265,0.480,0.424,0.396,0.216,0.189,south-southwest,10.8,No
2016/03/18,22:10,0.460,0.265,0.477,0.427,0.398,0.215,0.189,south-southwest,10.8,No
2016/03/18,22:20,0.465,0.264,0.478,0.426,0.395,0.215,0.189,south-southwest,10.5,No
2016/03/18,22:30,0.461,0.264,0.477,0.427,0.398,0.216,0.189,south-southwest,9.0,No
2016/03/18,22:40,0.463,0.264,0.479,0.424,0.395,0.216,0.190,south-southwest,8.1,No
2016/03/18,22:50,0.463,0.264,0.477,0.428,0.399,0.216,0.189,south-southwest,6.7,No
2016/03/18,23:00,0.463,0.265,0.477,0.426,0.395,0.217,0.190,south-southwest,8.0,No
2016/03/18,23:10,0.463,0.264,0.477,0.427,0.400,0.216,0.189,south-southwest,6.9,No
2016/03/18,23:20,0.461,0.264,0.478,0.426,0.396,0.216,0.189,south-southwest,6.4,No
2016/03/18,23:30,0.463,0.266,0.478,0.427,0.396,0.216,0.188,south-southwest,6.1,No
2016/03/18,23:40,0.462,0.265,0.475,0.428,0.397,0.216,0.189,south-southwest,5.9,No
2016/03/18,23:50,0.464,0.265,0.480,0.425,0.395,0.216,0.189,south-southwest,6.3,No
